When you browse on this site, cookies collect data to enhance your experience and personalize the content and advertising you see.
Visit our Privacy Policy to learn more. By continuing to use the site, you agree to this use of cookies and data.
  • In Österreich
  • Länderverzeichnis
  • Für 7 Tage
  • Wassertemperatur
  • Satellitenkarten
  • Wetterkarte
  • News
  • Widgets
  • user-avatar
    Anmelden

    Stündliche Wetter Januszewice

    Heute, 16 Januar, Mittwoch

    Zeit Temperatur Niederschläge Wind Luftdruck Luftfeuchtigkeit
    00:00 +2°C° 0.1 mm 9 m/S 745 mmHg 86%
    01:00 +3°C° 0 mm 7 m/S 746 mmHg 85%
    02:00 +3°C° 0.4 mm 6 m/S 746 mmHg 87%
    03:00 +3°C° 0.4 mm 6 m/S 746 mmHg 89%
    04:00 +3°C° 0.4 mm 6 m/S 746 mmHg 91%
    05:00 +3°C° 0.4 mm 6 m/S 746 mmHg 90%
    06:00 +4°C° 0.4 mm 6 m/S 747 mmHg 89%
    07:00 +4°C° 0.4 mm 7 m/S 747 mmHg 88%
    08:00 +4°C° 0.1 mm 7 m/S 747 mmHg 86%
    09:00 +4°C° 0.1 mm 7 m/S 748 mmHg 84%
    10:00 +4°C° 0.1 mm 7 m/S 748 mmHg 82%
    11:00 +4°C° 0.1 mm 7 m/S 748 mmHg 83%
    12:00 +4°C° 0.1 mm 7 m/S 748 mmHg 83%
    13:00 +4°C° 0.1 mm 6 m/S 748 mmHg 83%
    14:00 +4°C° 0 mm 6 m/S 748 mmHg 83%
    15:00 +4°C° 0 mm 6 m/S 747 mmHg 83%
    16:00 +5°C° 0 mm 5 m/S 747 mmHg 83%
    17:00 +4°C° 0 mm 6 m/S 747 mmHg 83%
    18:00 +3°C° 0 mm 6 m/S 747 mmHg 82%
    19:00 +3°C° 0 mm 6 m/S 746 mmHg 81%
    20:00 +3°C° 0 mm 6 m/S 746 mmHg 81%
    21:00 +3°C° 0 mm 6 m/S 746 mmHg 81%
    22:00 +2°C° 0 mm 6 m/S 745 mmHg 80%
    23:00 +2°C° 0 mm 6 m/S 745 mmHg 79%

    Morgen, 17 Januar, Donnerstag

    Zeit Temperatur Niederschläge Wind Luftdruck Luftfeuchtigkeit
    00:00 +2°C° 0 mm 6 m/S 744 mmHg 77%
    01:00 +2°C° 0 mm 6 m/S 744 mmHg 75%
    02:00 +2°C° 0 mm 6 m/S 743 mmHg 73%
    03:00 +2°C° 0 mm 6 m/S 743 mmHg 71%
    04:00 +2°C° 0 mm 7 m/S 742 mmHg 70%
    05:00 +2°C° 0 mm 7 m/S 742 mmHg 71%
    06:00 0°C° 0 mm 7 m/S 742 mmHg 72%
    07:00 0°C° 0 mm 7 m/S 742 mmHg 73%
    08:00 +2°C° 0 mm 7 m/S 742 mmHg 74%
    09:00 +2°C° 0 mm 8 m/S 743 mmHg 75%
    10:00 +2°C° 0 mm 8 m/S 743 mmHg 76%
    11:00 +4°C° 0 mm 8 m/S 743 mmHg 71%
    12:00 +4°C° 0 mm 8 m/S 743 mmHg 67%
    13:00 +5°C° 0 mm 8 m/S 743 mmHg 63%
    14:00 +4°C° 0 mm 7 m/S 742 mmHg 65%
    15:00 +4°C° 0 mm 6 m/S 742 mmHg 67%
    16:00 +3°C° 0 mm 5 m/S 742 mmHg 69%
    17:00 +3°C° 0.3 mm 7 m/S 742 mmHg 70%
    18:00 +2°C° 0.3 mm 8 m/S 742 mmHg 71%
    19:00 +2°C° 0.3 mm 9 m/S 742 mmHg 72%
    20:00 +1°C° 0.1 mm 9 m/S 742 mmHg 69%
    21:00 +1°C° 0.1 mm 8 m/S 743 mmHg 67%
    22:00 0°C° 0.1 mm 7 m/S 744 mmHg 64%
    23:00 -1°C° 0 mm 7 m/S 744 mmHg 65%

    übermorgen, 18 Januar, Freitag

    Zeit Temperatur Niederschläge Wind Luftdruck Luftfeuchtigkeit
    00:00 -2°C° 0 mm 7 m/S 744 mmHg 67%
    01:00 -2°C° 0 mm 7 m/S 745 mmHg 69%
    02:00 -2°C° 0.1 mm 7 m/S 745 mmHg 69%
    03:00 -2°C° 0.1 mm 7 m/S 745 mmHg 70%
    04:00 -2°C° 0.1 mm 8 m/S 745 mmHg 70%
    05:00 -2°C° 0.4 mm 8 m/S 746 mmHg 72%
    06:00 -2°C° 0.4 mm 8 m/S 747 mmHg 75%
    07:00 -2°C° 0.4 mm 8 m/S 748 mmHg 77%
    08:00 -2°C° 0 mm 8 m/S 749 mmHg 78%
    09:00 -2°C° 0 mm 7 m/S 751 mmHg 79%
    10:00 -2°C° 0 mm 7 m/S 752 mmHg 80%
    11:00 -2°C° 0 mm 6 m/S 753 mmHg 75%
    12:00 -2°C° 0 mm 6 m/S 753 mmHg 70%
    13:00 -2°C° 0 mm 6 m/S 754 mmHg 64%
    14:00 -1°C° 0 mm 5 m/S 755 mmHg 68%
    15:00 -2°C° 0 mm 4 m/S 755 mmHg 71%
    16:00 -1°C° 0 mm 3 m/S 756 mmHg 75%
    17:00 -2°C° 0 mm 3 m/S 756 mmHg 78%
    18:00 -2°C° 0 mm 3 m/S 757 mmHg 81%
    19:00 -3°C° 0 mm 2 m/S 757 mmHg 84%
    20:00 -3°C° 0 mm 2 m/S 757 mmHg 85%
    21:00 -3°C° 0 mm 2 m/S 757 mmHg 87%
    22:00 -3°C° 0 mm 2 m/S 757 mmHg 88%
    23:00 -4°C° 0 mm 3 m/S 758 mmHg 88%

    19 Januar, Samstag

    Zeit Temperatur Niederschläge Wind Luftdruck Luftfeuchtigkeit
    00:00 -4°C° 0 mm 3 m/S 758 mmHg 87%
    01:00 -4°C° 0 mm 3 m/S 758 mmHg 87%
    02:00 -4°C° 0 mm 3 m/S 758 mmHg 85%
    03:00 -4°C° 0 mm 3 m/S 758 mmHg 83%
    04:00 -4°C° 0 mm 3 m/S 757 mmHg 81%
    05:00 -4°C° 0 mm 3 m/S 757 mmHg 80%
    06:00 -3°C° 0 mm 2 m/S 757 mmHg 79%
    07:00 -3°C° 0 mm 2 m/S 757 mmHg 77%
    08:00 -2°C° 0 mm 2 m/S 758 mmHg 74%
    09:00 -2°C° 0 mm 2 m/S 758 mmHg 72%
    10:00 -1°C° 0 mm 2 m/S 758 mmHg 69%
    11:00 -1°C° 0 mm 2 m/S 758 mmHg 66%
    12:00 +1°C° 0 mm 2 m/S 758 mmHg 63%
    13:00 +2°C° 0 mm 2 m/S 757 mmHg 60%
    14:00 +2°C° 0 mm 1 m/S 757 mmHg 63%
    15:00 +1°C° 0 mm 1 m/S 757 mmHg 65%
    16:00 +1°C° 0 mm 1 m/S 757 mmHg 68%
    17:00 +1°C° 0 mm 1 m/S 757 mmHg 68%
    18:00 0°C° 0 mm 1 m/S 757 mmHg 68%
    19:00 0°C° 0 mm 1 m/S 757 mmHg 68%
    20:00 0°C° 0 mm 1 m/S 757 mmHg 68%
    21:00 0°C° 0 mm 1 m/S 757 mmHg 68%
    22:00 0°C° 0 mm 1 m/S 757 mmHg 68%
    23:00 -1°C° 0 mm 1 m/S 757 mmHg 69%

    20 Januar, Sonntag

    Zeit Temperatur Niederschläge Wind Luftdruck Luftfeuchtigkeit
    00:00 -1°C° 0 mm 1 m/S 757 mmHg 69%
    01:00 -2°C° 0 mm 0 m/S 757 mmHg 69%
    02:00 -2°C° 0 mm 0 m/S 757 mmHg 69%
    03:00 -2°C° 0 mm 0 m/S 757 mmHg 69%
    04:00 -2°C° 0 mm 0 m/S 757 mmHg 69%
    05:00 -2°C° 0 mm 0 m/S 757 mmHg 70%
    06:00 -2°C° 0 mm 0 m/S 757 mmHg 70%
    07:00 -2°C° 0 mm 0 m/S 758 mmHg 71%
    08:00 -1°C° 0 mm 1 m/S 758 mmHg 69%
    09:00 0°C° 0 mm 1 m/S 758 mmHg 67%
    10:00 0°C° 0 mm 1 m/S 759 mmHg 66%
    11:00 -1°C° 0 mm 2 m/S 758 mmHg 64%
    12:00 +1°C° 0 mm 2 m/S 758 mmHg 63%
    13:00 +1°C° 0 mm 2 m/S 758 mmHg 62%
    14:00 +1°C° 0 mm 2 m/S 759 mmHg 66%
    15:00 -1°C° 0 mm 2 m/S 759 mmHg 71%
    16:00 -2°C° 0 mm 2 m/S 759 mmHg 76%
    17:00 -2°C° 0 mm 2 m/S 759 mmHg 79%
    18:00 -2°C° 0 mm 2 m/S 760 mmHg 81%
    19:00 -2°C° 0 mm 2 m/S 760 mmHg 84%
    20:00 -2°C° 0 mm 2 m/S 761 mmHg 85%
    21:00 -3°C° 0 mm 2 m/S 761 mmHg 86%
    22:00 -4°C° 0 mm 2 m/S 762 mmHg 87%
    23:00 -4°C° 0 mm 2 m/S 762 mmHg 84%

    21 Januar, Montag

    Zeit Temperatur Niederschläge Wind Luftdruck Luftfeuchtigkeit
    00:00 -4°C° 0 mm 2 m/S 763 mmHg 82%
    01:00 -4°C° 0 mm 2 m/S 763 mmHg 80%
    02:00 -4°C° 0 mm 2 m/S 763 mmHg 78%
    03:00 -4°C° 0 mm 2 m/S 764 mmHg 77%
    04:00 -4°C° 0 mm 2 m/S 764 mmHg 76%
    05:00 -4°C° 0 mm 2 m/S 764 mmHg 76%
    06:00 -5°C° 0 mm 2 m/S 765 mmHg 76%
    07:00 -5°C° 0 mm 2 m/S 765 mmHg 75%
    08:00 -2°C° 0 mm 1 m/S 765 mmHg 73%
    09:00 -2°C° 0 mm 1 m/S 766 mmHg 70%
    10:00 -1°C° 0 mm 1 m/S 766 mmHg 67%
    11:00 0°C° 0 mm 1 m/S 766 mmHg 63%
    12:00 0°C° 0 mm 1 m/S 766 mmHg 60%
    13:00 +1°C° 0 mm 1 m/S 766 mmHg 56%
    14:00 0°C° 0 mm 1 m/S 766 mmHg 59%
    15:00 0°C° 0 mm 1 m/S 766 mmHg 62%
    16:00 -2°C° 0 mm 0 m/S 766 mmHg 64%
    17:00 -1°C° 0 mm 1 m/S 766 mmHg 66%
    18:00 -2°C° 0 mm 1 m/S 766 mmHg 67%
    19:00 -2°C° 0 mm 1 m/S 766 mmHg 68%
    20:00 -2°C° 0 mm 1 m/S 766 mmHg 69%
    21:00 -2°C° 0 mm 1 m/S 766 mmHg 70%
    22:00 -2°C° 0 mm 1 m/S 766 mmHg 71%
    23:00 -5°C° 0 mm 2 m/S 765 mmHg 72%
    Mehr zeigen